| time (UTC) | temp C | wind direction | speed KPH | gust KPH | rain 1hr cm | rain 24hr cm | rain mn cm | humidity % | barometer mb |
| 20260503004611 | 18 | 307 | 0.0 | 8.0 | 0.00 | 0.00 | 0.00 | 10 | 1016.5 |
| 20260503003050 | 18 | 255 | 1.6 | 9.7 | 0.00 | 0.00 | 0.00 | 9 | 1016.6 |
| 20260503001550 | 19 | 255 | 0.0 | 9.7 | 0.00 | 0.00 | 0.00 | 10 | 1016.7 |
| 20260503000048 | 20 | 188 | 1.6 | 8.0 | 0.00 | 0.00 | 0.00 | 10 | 1016.7 |
| 20260502234548 | 20 | 259 | 1.6 | 9.7 | 0.00 | 0.00 | 0.00 | 10 | 1017.0 |
| 20260502233044 | 20 | 257 | 1.6 | 11.3 | 0.00 | 0.00 | 0.00 | 9 | 1017.0 |
| 20260502231556 | 20 | 304 | 1.6 | 9.7 | 0.00 | 0.00 | 0.00 | 10 | 1017.1 |
| 20260502230048 | 20 | 244 | 6.4 | 20.9 | 0.00 | 0.00 | 0.00 | 11 | 1017.0 |
| 20260502224545 | 20 | 276 | 3.2 | 12.9 | 0.00 | 0.00 | 0.00 | 10 | 1017.2 |
| 20260502223051 | 20 | 318 | 1.6 | 11.3 | 0.00 | 0.00 | 0.00 | 12 | 1017.4 |
| 20260502221547 | 20 | 323 | 4.8 | 11.3 | 0.00 | 0.00 | 0.00 | 10 | 1017.4 |
| 20260502220100 | 20 | 248 | 1.6 | 12.9 | 0.00 | 0.00 | 0.00 | 11 | 1017.7 |
| 20260502214555 | 20 | 313 | 3.2 | 9.7 | 0.00 | 0.00 | 0.00 | 11 | 1018.0 |
| 20260502213052 | 21 | 275 | 3.2 | 9.7 | 0.00 | 0.00 | 0.00 | 12 | 1018.4 |
| 20260502211550 | 21 | 276 | 3.2 | 9.7 | 0.00 | 0.00 | 0.00 | 11 | 1018.7 |
| 20260502210058 | 21 | 281 | 1.6 | 8.0 | 0.00 | 0.00 | 0.00 | 11 | 1018.8 |
| 20260502204548 | 20 | 312 | 3.2 | 8.0 | 0.00 | 0.00 | 0.00 | 12 | 1019.2 |
| 20260502203052 | 20 | 311 | 1.6 | 11.3 | 0.00 | 0.00 | 0.00 | 10 | 1019.2 |
| 20260502201601 | 20 | 334 | 3.2 | 11.3 | 0.00 | 0.00 | 0.00 | 11 | 1019.4 |
| 20260502200059 | 20 | 242 | 1.6 | 6.4 | 0.00 | 0.00 | 0.00 | 12 | 1019.5 |
| 20260502194549 | 20 | 325 | 3.2 | 8.0 | 0.00 | 0.00 | 0.00 | 13 | 1019.8 |
| 20260502193045 | 19 | 310 | 3.2 | 12.9 | 0.00 | 0.00 | 0.00 | 14 | 1019.8 |
| 20260502191552 | 20 | 244 | 3.2 | 8.0 | 0.00 | 0.00 | 0.00 | 15 | 1020.1 |
| 20260502184556 | 18 | 300 | 1.6 | 11.3 | 0.00 | 0.00 | 0.00 | 17 | 1020.4 |
| 20260502183047 | 18 | 341 | 3.2 | 8.0 | 0.00 | 0.00 | 0.00 | 18 | 1020.7 |
| 20260502181545 | 16 | 226 | 3.2 | 11.3 | 0.00 | 0.00 | 0.00 | 18 | 1020.7 |
| 20260502180114 | 17 | 124 | 3.2 | 11.3 | 0.00 | 0.00 | 0.00 | 19 | 1021.0 |
| 20260502163059 | 15 | 141 | 0.0 | 6.4 | 0.00 | 0.00 | 0.00 | 21 | 1021.6 |
| 20260502161559 | 14 | 155 | 3.2 | 9.7 | 0.00 | 0.00 | 0.00 | 21 | 1021.7 |
| 20260502151558 | 14 | 119 | 0.0 | 4.8 | 0.00 | 0.00 | 0.00 | 23 | 1022.2 |
| 20260502123053 | 6 | 87 | 1.6 | 4.8 | 0.00 | 0.00 | 0.00 | 38 | 1021.7 |
| 20260502121601 | 6 | 87 | 0.0 | 6.4 | 0.00 | 0.00 | 0.00 | 37 | 1021.7 |
| 20260502114547 | 6 | 89 | 1.6 | 6.4 | 0.00 | 0.00 | 0.00 | 38 | 1021.5 |
| 20260502113049 | 6 | 69 | 3.2 | 6.4 | 0.00 | 0.00 | 0.00 | 39 | 1021.4 |
| 20260502111559 | 6 | 74 | 1.6 | 4.8 | 0.00 | 0.00 | 0.00 | 40 | 1021.3 |
| 20260502110052 | 6 | 89 | 0.0 | 3.2 | 0.00 | 0.00 | 0.00 | 40 | 1021.3 |
| 20260502104549 | 6 | 84 | 0.0 | 4.8 | 0.00 | 0.00 | 0.00 | 40 | 1021.3 |
| 20260502103054 | 6 | 69 | 1.6 | 6.4 | 0.00 | 0.00 | 0.00 | 42 | 1021.5 |
| 20260502101619 | 6 | 45 | 3.2 | 8.0 | 0.00 | 0.00 | 0.00 | 43 | 1021.3 |
| 20260502100108 | 6 | 51 | 1.6 | 4.8 | 0.00 | 0.00 | 0.00 | 44 | 1021.3 |
| 20260502070046 | 6 | 108 | 0.0 | 1.6 | 0.00 | 0.00 | 0.00 | 40 | 1021.9 |
| 20260502064547 | 6 | 113 | 0.0 | 1.6 | 0.00 | 0.00 | 0.00 | 40 | 1021.9 |
| 20260502063045 | 7 | 113 | 0.0 | 1.6 | 0.00 | 0.00 | 0.00 | 39 | 1021.8 |
| 20260502061549 | 7 | 113 | 0.0 | 1.6 | 0.00 | 0.00 | 0.00 | 36 | 1021.9 |
| 20260502060051 | 7 | 113 | 0.0 | 1.6 | 0.00 | 0.00 | 0.00 | 37 | 1021.9 |
| 20260502054552 | 8 | 85 | 0.0 | 3.2 | 0.00 | 0.00 | 0.00 | 37 | 1021.9 |
| 20260502053101 | 8 | 72 | 1.6 | 3.2 | 0.00 | 0.00 | 0.00 | 38 | 1021.8 |
| 20260502051559 | 8 | 89 | 1.6 | 4.8 | 0.00 | 0.00 | 0.00 | 41 | 1021.7 |
| 20260502050058 | 8 | 89 | 1.6 | 4.8 | 0.00 | 0.00 | 0.00 | 43 | 1021.8 |
| 20260502044555 | 8 | 96 | 3.2 | 8.0 | 0.00 | 0.00 | 0.00 | 43 | 1021.6 |
| 20260502043100 | 8 | 112 | 3.2 | 6.4 | 0.00 | 0.00 | 0.00 | 43 | 1021.5 |
| 20260502041546 | 8 | 96 | 1.6 | 6.4 | 0.00 | 0.00 | 0.00 | 42 | 1021.3 |
| 20260502040049 | 8 | 97 | 1.6 | 3.2 | 0.00 | 0.00 | 0.00 | 41 | 1021.2 |
| 20260502034553 | 9 | 97 | 1.6 | 3.2 | 0.00 | 0.00 | 0.00 | 39 | 1021.0 |
| 20260502033055 | 9 | 97 | 0.0 | 3.2 | 0.00 | 0.00 | 0.00 | 39 | 1020.7 |
| 20260502031551 | 9 | 85 | 0.0 | 3.2 | 0.00 | 0.00 | 0.00 | 38 | 1020.4 |
| 20260502030054 | 9 | 68 | 1.6 | 3.2 | 0.00 | 0.00 | 0.00 | 37 | 1020.3 |
| 20260502024548 | 10 | 62 | 1.6 | 3.2 | 0.00 | 0.00 | 0.00 | 31 | 1020.1 |
| 20260502023054 | 10 | 129 | 1.6 | 6.4 | 0.00 | 0.00 | 0.00 | 28 | 1020.0 |
| 20260502021551 | 11 | 0 | 0.0 | 1.6 | 0.00 | 0.00 | 0.00 | 27 | 1019.8 |
| 20260502020052 | 11 | 130 | 0.0 | 1.6 | 0.00 | 0.00 | 0.00 | 25 | 1019.6 |
| 20260502014555 | 12 | 131 | 3.2 | 8.0 | 0.00 | 0.00 | 0.00 | 23 | 1019.4 |
| 20260502013056 | 12 | 130 | 4.8 | 12.9 | 0.00 | 0.00 | 0.00 | 21 | 1019.3 |
| 20260502011608 | 13 | 124 | 3.2 | 9.7 | 0.00 | 0.00 | 0.00 | 20 | 1019.1 |
| 20260502010052 | 13 | 122 | 0.0 | 4.8 | 0.00 | 0.00 | 0.00 | 22 | 1019.0 |